Back to catalog

STARLINK-35401

AliveCommunicationsVLEO
NORAD 66067·PAYLOAD·🇺🇸 United States

Launched Oct 19, 2025 from Cape Canaveral Space Force Station

Loading…

Next Passes (next 24 hours)

TLE

FreshSource: CelesTrak SupGP

Epoch: Sep 14, 2026, 21:10 UTC

1 66067C 25235K   26257.88243056  .00028550  00000+0  84353-3 0  2572
2 66067  53.1586  83.6439 0001195  91.6596  60.4275 15.34375858    14

Track STARLINK-35401 in real time with AllMySat

Download on the App Store